Weather in Varash

Ukraine / Rovno District     51°20′53″N   25°50′57″E
temp.,
°C
wind,
m/s
gust,
m/s
humid.,
%
clouds,
%
prec.,
mm/h
press.,
hPa
HPBL,
m
25 february, thu
thu2523:00+4wsw3499100 0.0 103274
02:00+4w3799100 0.0 1032128
05:00+4wsw3699100 0.0 1030106
08:00+3w3599100 0.0 1031114
11:00+6w249165 0.0 1031231
14:00+9wsw358652 0.0 1030277
17:00+7wsw34920 0.0 102976
20:00+5sw34910 0.0 102859
26 february, fri
fri2623:00+4sw47890 0.0 1027116
02:00+3wsw49900 0.0 1026159
05:00+3wsw49930 0.0 1024173
08:00+3w511930 0.0 1024235
11:00+8w598715 0.0 1024382
14:00+10w6108349 0.0 1023889
17:00+9w51183100 0.0 1021811
20:00+7wnw51282100 0.0 1021710
27 february, sat
sat2723:00+5wnw51380100 0.0 1021785
02:00+3wnw5138571 0.0 1021667
05:00+4wnw7137881 0.0 1020962
08:00+4wnw7138391 0.1 1019984
11:00+4nw91376100 0.1 10191347
14:00+6nw81463100 0.2 10201681
17:00+5nw71264100 0.1 10211258
20:00+4nnw51172100 0.1 10231043
28 february, sun
sun2823:00+3nnw51172100 0.1 1024984
02:00+1nnw5108294 0.1 1027592
05:00−1nnw498813 0.0 1028401
08:00−1nw598732 0.0 1029518
11:00+1nw5775100 0.0 1029775
14:00+3nw6867100 0.0 1029928
17:00+3nw496597 0.0 1029897
20:00+1nw4107690 0.0 1030251
1 march, mon
mon123:000nw388456 0.0 1031190
02:000wnw368961 0.0 1031182
05:00+1nw3798100 1.7 1031328
08:00+1nw3697100 2.4 1031311
11:00+2n3496100 0.2 1033271
14:00+3n1286100 0.3 1034346
17:00+3ene0184100 0.1 103522
20:00+1ssw118891 0.1 103622